This is the latest recevied weather packets stored in our database for station/object DB0ASF-4. If no packets are shown the sender has not sent any weather packets the latest 10 day(s).
| Time | Temp. | Humidity | Pressure | Rain* | Wind** | Luminosity | Snow |
|---|---|---|---|---|---|---|---|
| 1776943153 | 21.67° C | 28% | 1032 hPa | 0 mm | - | - | - |
| 1776942553 | 21.11° C | 28% | 1032.1 hPa | 0 mm | - | - | - |
| 1776941953 | 20.56° C | 30% | 1032.1 hPa | 0 mm | - | - | - |
| 1776941353 | 20.56° C | 30% | 1032.3 hPa | 0 mm | - | - | - |
| 1776940753 | 20° C | 31% | 1032.4 hPa | 0 mm | - | - | - |
| 1776940153 | 19.44° C | 34% | 1032.5 hPa | 0 mm | - | - | - |
| 1776939553 | 18.89° C | 36% | 1032.5 hPa | 0 mm | - | - | - |
| 1776938953 | 17.78° C | 39% | 1032.8 hPa | 0 mm | - | - | - |
| 1776938353 | 17.22° C | 40% | 1032.9 hPa | 0 mm | - | - | - |
| 1776937753 | 16.67° C | 42% | 1033 hPa | 0 mm | - | - | - |
| 1776937153 | 15.56° C | 44% | 1033.1 hPa | 0 mm | - | - | - |
| 1776936553 | 15° C | 44% | 1033.3 hPa | 0 mm | - | - | - |
| 1776935953 | 14.44° C | 47% | 1033.3 hPa | 0 mm | - | - | - |
| 1776935353 | 13.89° C | 50% | 1033.4 hPa | 0 mm | - | - | - |
| 1776934753 | 12.78° C | 54% | 1033.4 hPa | 0 mm | - | - | - |
| 1776934153 | 11.67° C | 58% | 1033.3 hPa | 0 mm | - | - | - |
| 1776933553 | 11.11° C | 61% | 1033.3 hPa | 0 mm | - | - | - |
| 1776932953 | 10.56° C | 63% | 1033.5 hPa | 0 mm | - | - | - |
| 1776932353 | 9.44° C | 65% | 1033.5 hPa | 0 mm | - | - | - |
| 1776931753 | 8.89° C | 66% | 1033.6 hPa | 0 mm | - | - | - |
| 1776931153 | 8.89° C | 68% | 1033.6 hPa | 0 mm | - | - | - |
| 1776930553 | 8.33° C | 69% | 1033.6 hPa | 0 mm | - | - | - |
| 1776929953 | 7.78° C | 70% | 1033.5 hPa | 0 mm | - | - | - |
| 1776929353 | 7.22° C | 72% | 1033.5 hPa | 0 mm | - | - | - |
| 1776928753 | 6.67° C | 73% | 1033.5 hPa | 0 mm | - | - | - |
* Rain latest hour (hover to see other rain measurements)
** Current wind speed in m/s (hover to see current wind gust speed)